www.pogodaiklimat.ru

Погода и климат >> Архив погоды >> Кувейт >> Failaka Island


ПОГОДА в Failaka Island

  • Прогноз погоды в Failaka Island
  • Монитор погоды в Failaka Island
  • Климат города

АРХИВ ПОГОДЫ в Failaka Island

Время (UTC), дата Ветер
(напр.,м/с)
 
Видим.   Явления Облачность Т
(С)
Тd
(С)
f
(%)
Тe
(С)
Тes
(С)
Комфортность P
(гПа)
Po
(гПа)
Тmin
(С)
Tmax
(С)
R
(мм)
R24
(мм)
S
(см)
12 9.10 Ю 2-2
{7}
н/о н/о +37.0 +22.2 43 +46 +46 опасность
перегрева
1008.3 1008.0
15 9.10 ЮВ 3-5
{5}
н/о н/о +32.0 +27.0 75 +50 +50 опасность
перегрева
1008.2 1008.0
18 9.10 Ю 2-3
{5}
н/о н/о +30.2 +28.3 90 +51 +51 опасность
перегрева
1009.5 1010.0
21 9.10 ЮВ 1 3600 м дымка н/о +29.7 +28.7 94 +51 +51 опасность
перегрева
1009.7 1010.0 +23.7 +38.2
00 10.10 ЮЗ 3-3
{5}
4600 м в посл. час дождь н/о +28.0 +27.4 97 +45 +45 опасность
перегрева
1008.9 1009.0
03 10.10 З 2-2
{4}
н/о н/о +27.5 +23.1 77 +37 +37 очень
душно
1010.2 1010.0
06 10.10 З 5-6
{7}
н/о н/о +35.1 +15.2 30 +37 +37 очень
душно
1011.3 1011.0
09 10.10 СЗ 4-6
{8}
н/о н/о +38.4 +13.8 23 +39 +39 очень
душно
1009.8 1010.0
12 10.10 СВ 1-4
{8}
н/о н/о +38.8 +13.3 22 +39 +39 очень
жарко
1008.4 1008.0
15 10.10 Ю 1-2
{6}
н/о н/о +32.4 +22.5 56 +42 +42 опасность
перегрева
1008.5 1009.0
18 10.10 В 3-4
{6}
н/о н/о +32.3 +24.4 63 +45 +45 опасность
перегрева
1009.5 1010.0
21 10.10 Ю 4 н/о н/о +29.9 +26.7 83 +46 +46 опасность
перегрева
1009.4 1009.0 +26.0 +40.8
00 11.10 Ю 2-3
{5}
н/о н/о +28.7 +24.7 79 +41 +41 опасность
перегрева
1009.8 1010.0
03 11.10 З 2-2
{4}
н/о н/о +27.0 +22.2 75 +35 +35 очень
душно
1010.6 1011.0
06 11.10 З 4-6
{6}
н/о н/о +35.1 +12.9 26 +35 +35 очень
жарко
1011.6 1012.0
09 11.10 З 3-5
{6}
н/о н/о +39.5 +13.2 21 +39 +39 очень
жарко
1010.3 1010.0
12 11.10 В 3-5
{6}
н/о н/о +37.3 +18.0 32 +41 +41 опасность
перегрева
1009.0 1009.0
15 11.10 ЮВ 4-5
{7}
н/о н/о +31.1 +24.5 68 +44 +44 опасность
перегрева
1009.2 1009.0
18 11.10 Ю 5-7
{7}
н/о н/о +30.9 +26.7 78 +48 +48 опасность
перегрева
1010.0 1010.0
21 11.10 ЮВ 4 н/о н/о +29.7 +26.0 81 +45 +45 опасность
перегрева
1010.5 1011.0 +26.5 +41.7
00 12.10 Ю 4-5
{8}
н/о н/о +29.4 +25.6 80 +43 +43 опасность
перегрева
1010.0 1010.0
03 12.10 Ю 4-6
{7}
н/о н/о +28.9 +25.3 81 +42 +42 опасность
перегрева
1010.5 1011.0
06 12.10 Ю 2-3
{7}
н/о н/о +33.7 +18.1 40 +38 +38 очень
душно
1011.9 1012.0
09 12.10 Ю 4-6
{6}
н/о н/о +35.7 +23.2 49 +46 +46 опасность
перегрева
1010.8 1011.0
12 12.10 В 5-7
{9}
н/о н/о +33.8 +22.4 51 +43 +43 опасность
перегрева
1010.0 1010.0
15 12.10 ЮВ 4-5
{8}
н/о н/о +30.9 +26.0 75 +46 +46 опасность
перегрева
1010.3 1010.0
18 12.10 ЮВ 4-5
{8}
н/о н/о +29.2 +26.3 84 +44 +44 опасность
перегрева
1011.4 1011.0
21 12.10 Ю 5 н/о н/о +30.1 +26.1 79 +45 +45 опасность
перегрева
1011.4 1011.0 +27.9 +36.4
00 13.10 Ю 4-6
{7}
н/о н/о +29.5 +26.5 84 +45 +45 опасность
перегрева
1011.3 1011.0
03 13.10 Ю 4-5
{7}
н/о н/о +29.0 +26.0 84 +44 +44 опасность
перегрева
1012.2 1012.0
06 13.10 С 6-10
{10}
н/о н/о +30.5 +25.4 74 +44 +44 опасность
перегрева
1014.2 1014.0
09 13.10 В 3-6
{10}
н/о н/о +32.4 +26.2 70 +49 +49 опасность
перегрева
1013.4 1013.0
12 13.10 В 4-6
{10}
н/о н/о +32.5 +25.9 68 +48 +48 опасность
перегрева
1012.1 1012.0
15 13.10 ЮВ 2-3
{7}
н/о н/о +30.1 +25.3 76 +44 +44 опасность
перегрева
1012.1 1012.0
18 13.10 ЮВ 2-3
{7}
н/о н/о +28.9 +25.5 82 +43 +43 опасность
перегрева
1013.4 1013.0
21 13.10 Ю 4 н/о н/о +30.1 +26.2 80 +46 +46 опасность
перегрева
1013.4 1013.0 +28.5 +33.3
00 14.10 Ю 3-4
{6}
н/о н/о +29.5 +26.2 82 +45 +45 опасность
перегрева
1013.3 1013.0
03 14.10 Ю 3-4
{5}
н/о н/о +28.6 +26.4 88 +44 +44 опасность
перегрева
1014.0 1014.0
06 14.10 Ю 4-6
{6}
н/о н/о +31.2 +26.9 78 +49 +49 опасность
перегрева
1015.0 1015.0
09 14.10 Ю 3-5
{7}
н/о н/о +33.5 +23.0 54 +44 +44 опасность
перегрева
1013.6 1014.0
12 14.10 В 4-6
{7}
н/о н/о +32.8 +23.9 60 +45 +45 опасность
перегрева
1011.8 1012.0
15 14.10 ЮВ 3-4
{7}
н/о н/о +30.6 +24.3 69 +43 +43 опасность
перегрева
1011.8 1012.0
18 14.10 Ю 4-5
{7}
н/о н/о +29.8 +24.8 75 +43 +43 опасность
перегрева
1012.9 1013.0
21 14.10 ЮВ 4 н/о н/о +29.3 +25.1 78 +42 +42 опасность
перегрева
1012.9 1013.0 +28.4 +34.7
00 15.10 В 2-3
{6}
н/о н/о +28.1 +24.0 78 +39 +39 очень
душно
1012.8 1013.0
03 15.10 Ю 3-3
{5}
н/о н/о +29.0 +25.9 83 +43 +43 опасность
перегрева
1013.7 1014.0
06 15.10 СВ 9-19
{32}
н/о н/о +26.7 +17.7 58 +31 +31 душно 1017.2 1017.0
09 15.10 В 11-14
{17}
н/о н/о +31.3 +19.3 49 +37 +37 очень
душно
1014.2 1014.0
12 15.10 В 4-6
{17}
н/о н/о +31.8 +20.1 50 +38 +38 очень
душно
1013.1 1013.0
15 15.10 В 2-2
{6}
н/о н/о +28.9 +22.8 70 +38 +38 очень
душно
1014.1 1014.0
18 15.10 В 2-2
{6}
н/о н/о +28.0 +21.0 66 +35 +35 очень
душно
1014.4 1014.0
21 15.10 ЮВ 2 н/о н/о +27.8 +21.9 70 +36 +36 очень
душно
1013.5 1014.0 +20.2 +32.0
00 16.10 штиль 0-1
{3}
н/о н/о +25.3 +22.6 85 +33 +33 очень
душно
1013.1 1013.0
03 16.10 СЗ 4-5
{5}
н/о н/о +24.8 +20.4 77 +31 +31 очень
душно
1014.4 1014.0
06 16.10 СЗ 4-4
{6}
н/о н/о +29.2 +21.9 65 +38 +38 очень
душно
1015.9 1016.0
09 16.10 СВ 2-4
{5}
н/о н/о +31.7 +21.1 53 +39 +39 очень
душно
1014.0 1014.0

 

Местоположение метеостанции Failaka Island (Кувейт): широта 29.47 долгота 48.28 высота над уровнем моря 5 м.

В архиве по умолчанию представлена погода в Failaka Island за последнюю неделю. Архивные данные за месяц целиком и за предыдущие месяцы, начиная с января 2011 года, Вы можете получить, выбрав интересующий диапазон дат из раскрывающегося списка и нажав кнопку "Ввод!".


*Определитесь, кто Вы:
робот инопланетянин человек

Внимание! Время в таблицах - всемирное. Для получения местного времени необходимо прибавить поправку, которая в Failaka Island равна 3 ч.

Смотрите также архив погоды в соседних городах и на ближайших метеорологических станциях:

Погода в Al-Shuaiba (Кувейт) (22 км)
Погода в Kuwait City (Кувейт) (27 км)
Погода в Bubiyan (Кувейт) (35 км)
Погода в Experimental Farm (Кувейт) (39 км)
Погода в Kuwait (Кувейт) (41 км)
Погода в Sabriyah (Кувейт) (52 км)
Погода в Sulaibiya (Кувейт) (59 км)
Погода в Fao (Ирак) (61 км)
Погода в Jahra (Кувейт) (61 км)
Погода в Juluiah Port (Кувейт) (67 км)

Пояснения к столбцам:

Ветер - указаны скорость ветра в м/с - средняя за 10 мин, порывы в срок и между сроками (в фигурных скобках) и направление, откуда дует ветер: С - северный, СВ - северо-восточный, В - восточный, ЮВ - юго-восточный, Ю - южный, ЮЗ - юго-западный, З - западный, СЗ - северо-западный.
Видимость - горизонтальная дальность видимости в метрах или километрах. При видимости от 1 до 10 км при отсутствии осадков обычно наблюдается дымка, при ухудшении видимости до 1 км и менее - туман. В сухую погоду видимость может ухудшаться дымом, пылью или мглою.
Явления - указаны атмосферные явления, наблюдавшиеся в срок или в последний час перед сроком; фигурными скобками обозначены явления, наблюдавшиеся между сроками (за 1-3 часа до срока); квадратными скобками обозначены град или гололедные отложения с указанием их диаметра в мм.
Облачность - указаны через наклонную черту общая и нижняя облачность в баллах и высота нижней границы облаков в метрах; квадратными скобками обозначены формы облаков: Ci - перистые, Cs - перисто-слоистые, Cc - перисто-кучевые, Ac - высококучевые, As - высокослоистые, Sc - слоисто-кучевые, Ns - слоисто-дождевые, Cu - кучевые, Cb - кучево-дождевые. Подробнее классификацию облаков см. в Атласе облаков (PDF).
T - Температура воздуха - температура, измеренная на высоте 2 м над землей.
Td - Температура точки росы - температура, при понижении до которой содержащийся в воздухе водяной пар достигнет насыщения.
f - Относительная влажность воздуха - влажноcть воздуха, измеренная на высоте 2 м над землей.
Te - Эффективная температура - температура, которую ощущает одетый по сезону человек в тени. Характеристика душности погоды. При расчете учитывается влияние влажности воздуха и скорости ветра на теплоощущения человека.
Tes - Эффективная температура на солнце - температура, которую ощущает человек, с поправкой на солнечный нагрев. Характеристика знойности погоды. Зависит от высоты солнца над горизонтом, облачности и скорости ветра. Ночью, в пасмурную погоду, а также при ветре 12 м/с и более поправка равна нулю.
P - Атмосферное давление - приведенное к уровню моря атмосферное давление.
Po - Атмосферное давление - измеренное на уровне метеостанции атмосферное давление.
Tmin - Минимальная температура - минимум температуры воздуха на высоте 2 м над землей.
Tmax - Максимальная температура - максимум температуры воздуха на высоте 2 м над землей.
R - Количество осадков - Количество выпавших осадков за период времени, мм. При наведении курсора мыши на число - период времени, за который выпало указанное количество осадков.
R24 - Количество осадков - Количество выпавших осадков за 24 часа, мм.
S - Снежный покров - Высота снежного покрова, см. При наведении курсора мыши на число - состояние снежного покрова и степень покрытия местности в баллах.